Weather History for Colby, KS

Change the Weather History Date:

Tuesday, October 2, 2012

  Actual Average (KGLD) Record (KGLD)
Temperature  
Mean Temperature 55 °F 57 °F  
Max Temperature 78 °F 72 °F 93 °F (1953)
Min Temperature 32 °F 43 °F 30 °F (1999)
Degree Days  
Heating Degree Days 10 8  
Month to date heating degree days 16  
Since 1 July heating degree days 140  
Cooling Degree Days 0 1  
Month to date cooling degree days 2  
Year to date cooling degree days 935  
Growing Degree Days 5 (Base 50)    
Moisture  
Dew Point 38 °F    
Average Humidity 59    
Maximum Humidity 100    
Minimum Humidity 28    
Precipitation  
Precipitation 0.00 in 0.05 in 0.25 in (1990)
Month to date precipitation 0.10  
Year to date precipitation 17.22  
Snow  
Snow - 0.10 in - ()
Month to date snowfall 0.1  
Since 1 July snowfall 0.5  
Since 1 September snowfall 0.5  
Snow Depth -    
Sea Level Pressure  
Sea Level Pressure 29.99 in    
Wind  
Wind Speed 8 mph ()    
Max Wind Speed 17 mph    
Max Gust Speed 24 mph    
Visibility 10.0 miles    
Events      
T = Trace of Precipitation, MM = Missing Value Source: Averaged Metar Reports

Daily Weather History Graph

Daily Weather History Graph

Search for Another Location

Airport:

Trip Planner

Search our weather history database for the weather conditions in past years. The results will help you decide how hot, cold, wet, or windy it might be!

Date:

Astronomy

Oct. 02, 2012 Rise Set
Actual Time 7:41 AM CDT 7:24 PM CDT
Civil Twilight 7:14 AM CDT 7:51 PM CDT
Nautical Twilight 6:43 AM CDT 8:22 PM CDT
Astronomical Twilight 6:12 AM CDT 8:53 PM CDT
Moon 8:39 PM CDT (10/2) 10:09 AM CDT (10/2)
Length of Visible Light 12h 36m
Length of Day
11h 42m
Waning Gibbous, 94% of the Moon is Illuminated
Oct 2
Waning Gibbous
Oct 8
Last Quarter
Oct 15
New
Oct 21
First Quarter
Oct 29
Full

Hourly Weather History & Observations

Time (CDT) Temp. Windchill Dew Point Humidity Pressure Visibility Wind Dir Wind Speed Gust Speed Precip Events Conditions
12:15 AM 39.2 °F - 32.0 °F 75% 30.14 in 10.0 mi Calm Calm - N/A   Clear
12:55 AM 35.6 °F - 32.0 °F 87% 30.13 in 10.0 mi Calm Calm - N/A   Clear
1:15 AM 33.8 °F 29.6 °F 32.0 °F 93% 30.13 in 10.0 mi WNW 4.6 mph - N/A   Clear
1:55 AM 35.6 °F 30.7 °F 32.0 °F 87% 30.13 in 10.0 mi West 5.8 mph - N/A   Clear
2:15 AM 33.8 °F 27.7 °F 32.0 °F 93% 30.13 in 10.0 mi West 6.9 mph - N/A   Clear
2:35 AM 33.8 °F 27.0 °F 32.0 °F 93% 30.14 in 10.0 mi West 8.1 mph - N/A   Clear
2:55 AM 33.8 °F 27.7 °F 32.0 °F 93% 30.14 in 10.0 mi West 6.9 mph - N/A   Clear
3:15 AM 33.8 °F 27.7 °F 32.0 °F 93% 30.13 in 10.0 mi West 6.9 mph - N/A   Clear
3:35 AM 33.8 °F 27.7 °F 32.0 °F 93% 30.12 in 10.0 mi West 6.9 mph - N/A   Clear
3:55 AM 33.8 °F 27.0 °F 32.0 °F 93% 30.11 in 10.0 mi West 8.1 mph - N/A   Clear
4:15 AM 33.8 °F 27.7 °F 32.0 °F 93% 30.11 in 10.0 mi West 6.9 mph - N/A   Clear
4:35 AM 33.8 °F 28.6 °F 32.0 °F 93% 30.10 in 10.0 mi West 5.8 mph - N/A   Clear
4:55 AM 32.0 °F 24.8 °F 30.2 °F 93% 30.10 in 10.0 mi West 8.1 mph - N/A   Clear
5:15 AM 32.0 °F 25.6 °F 32.0 °F 100% 30.10 in 10.0 mi West 6.9 mph - N/A   Clear
5:35 AM 32.0 °F 26.4 °F 32.0 °F 100% 30.10 in 10.0 mi WSW 5.8 mph - N/A   Clear
5:55 AM 32.0 °F 27.5 °F 30.2 °F 93% 30.09 in 10.0 mi WSW 4.6 mph - N/A   Clear
6:15 AM 32.0 °F 27.5 °F 30.2 °F 93% 30.09 in 10.0 mi WSW 4.6 mph - N/A   Clear
6:35 AM 32.0 °F 26.4 °F 30.2 °F 93% 30.09 in 10.0 mi SW 5.8 mph - N/A   Clear
6:55 AM 32.0 °F 25.6 °F 30.2 °F 93% 30.09 in 10.0 mi WSW 6.9 mph - N/A   Clear
7:15 AM 32.0 °F 24.8 °F 30.2 °F 93% 30.08 in 10.0 mi WSW 8.1 mph - N/A   Clear
7:35 AM 32.0 °F 24.8 °F 32.0 °F 100% 30.08 in 10.0 mi WSW 8.1 mph - N/A   Clear
7:55 AM 33.8 °F 27.0 °F 32.0 °F 93% 30.07 in 10.0 mi SW 8.1 mph - N/A   Clear
8:15 AM 33.8 °F 27.0 °F 32.0 °F 93% 30.07 in 10.0 mi SW 8.1 mph - N/A   Clear
8:35 AM 37.4 °F 32.1 °F 33.8 °F 87% 30.07 in 10.0 mi SW 6.9 mph - N/A   Clear
8:55 AM 42.8 °F 40.1 °F 35.6 °F 76% 30.07 in 10.0 mi SW 4.6 mph - N/A   Clear
9:15 AM 50.0 °F - 37.4 °F 62% 30.06 in 10.0 mi SSW 6.9 mph - N/A   Clear
9:35 AM 53.6 °F - 37.4 °F 54% 30.06 in 10.0 mi SSW 10.4 mph - N/A   Clear
9:55 AM 55.4 °F - 35.6 °F 47% 30.05 in 10.0 mi SSW 12.7 mph - N/A   Clear
10:15 AM 59.0 °F - 35.6 °F 42% 30.04 in 10.0 mi South 16.1 mph 20.7 mph N/A   Clear
10:35 AM 60.8 °F - 35.6 °F 39% 30.04 in 10.0 mi South 15.0 mph 21.9 mph N/A   Clear
10:55 AM 62.6 °F - 37.4 °F 39% 30.03 in 10.0 mi SSW 13.8 mph - N/A   Clear
11:15 AM 64.4 °F - 37.4 °F 37% 30.02 in 10.0 mi SSW 12.7 mph 19.6 mph N/A   Clear
11:35 AM 66.2 °F - 37.4 °F 35% 30.02 in 10.0 mi SSW 12.7 mph 20.7 mph N/A   Clear
11:55 AM 68.0 °F - 39.2 °F 35% 30.01 in 10.0 mi South 15.0 mph - N/A   Clear
12:15 PM 68.0 °F - 41.0 °F 37% 30.00 in 10.0 mi South 15.0 mph 18.4 mph N/A   Clear
12:35 PM 69.8 °F - 41.0 °F 35% 29.99 in 10.0 mi SSW 13.8 mph 19.6 mph N/A   Clear
12:55 PM 71.6 °F - 41.0 °F 33% 29.98 in 10.0 mi South 12.7 mph 18.4 mph N/A   Clear
1:15 PM 71.6 °F - 41.0 °F 33% 29.97 in 10.0 mi South 16.1 mph 19.6 mph N/A   Clear
1:35 PM 73.4 °F - 42.8 °F 33% 29.96 in 10.0 mi South 16.1 mph 19.6 mph N/A   Clear
1:55 PM 73.4 °F - 42.8 °F 33% 29.95 in 10.0 mi South 12.7 mph 23.0 mph N/A   Clear
2:15 PM 75.2 °F - 42.8 °F 31% 29.93 in 10.0 mi South 17.3 mph - N/A   Clear
2:35 PM 77.0 °F - 42.8 °F 29% 29.92 in 10.0 mi South 10.4 mph 18.4 mph N/A   Clear
3:15 PM 77.0 °F - 42.8 °F 29% 29.90 in 10.0 mi SSW 13.8 mph 18.4 mph N/A   Clear
3:35 PM 78.8 °F - 42.8 °F 28% 29.89 in 10.0 mi South 11.5 mph 18.4 mph N/A   Clear
3:55 PM 78.8 °F - 42.8 °F 28% 29.89 in 10.0 mi South 15.0 mph 20.7 mph N/A   Clear
4:15 PM 78.8 °F - 42.8 °F 28% 29.88 in 10.0 mi South 17.3 mph 24.2 mph N/A   Clear
4:35 PM 78.8 °F - 42.8 °F 28% 29.87 in 10.0 mi South 13.8 mph 21.9 mph N/A   Clear
4:55 PM 78.8 °F - 44.6 °F 30% 29.87 in 10.0 mi South 11.5 mph - N/A   Clear
5:15 PM 78.8 °F - 44.6 °F 30% 29.86 in 10.0 mi SSW 11.5 mph 19.6 mph N/A   Clear
5:35 PM 78.8 °F - 44.6 °F 30% 29.86 in 10.0 mi South 13.8 mph 18.4 mph N/A   Clear
5:55 PM 78.8 °F - 44.6 °F 30% 29.86 in 10.0 mi South 12.7 mph - N/A   Clear
6:15 PM 78.8 °F - 44.6 °F 30% 29.86 in 10.0 mi SSE 15.0 mph - N/A   Clear
6:35 PM 77.0 °F - 44.6 °F 32% 29.86 in 10.0 mi SSE 17.3 mph - N/A   Clear
6:55 PM 73.4 °F - 44.6 °F 36% 29.86 in 10.0 mi SSE 12.7 mph - N/A   Clear
7:15 PM 71.6 °F - 42.8 °F 35% 29.86 in 10.0 mi SSE 15.0 mph 19.6 mph N/A   Clear
7:35 PM 69.8 °F - 42.8 °F 38% 29.86 in 10.0 mi SSE 13.8 mph - N/A   Clear
8:15 PM 68.0 °F - 42.8 °F 40% 29.86 in 10.0 mi SSE 11.5 mph - N/A   Clear
8:35 PM 66.2 °F - 42.8 °F 43% 29.86 in 10.0 mi SSE 12.7 mph - N/A   Clear
8:55 PM 64.4 °F - 42.8 °F 45% 29.86 in 10.0 mi SSE 13.8 mph - N/A   Clear
9:15 PM 62.6 °F - 42.8 °F 48% 29.87 in 10.0 mi South 12.7 mph - N/A   Clear
9:35 PM 62.6 °F - 42.8 °F 48% 29.87 in 10.0 mi South 13.8 mph - N/A   Clear
9:55 PM 62.6 °F - 44.6 °F 52% 29.87 in 10.0 mi South 12.7 mph - N/A   Clear
10:15 PM 62.6 °F - 44.6 °F 52% 29.87 in 10.0 mi South 13.8 mph - N/A   Clear
10:55 PM 59.0 °F - 44.6 °F 59% 29.87 in 10.0 mi South 11.5 mph - N/A   Clear
11:35 PM 57.2 °F - 44.6 °F 63% 29.87 in 10.0 mi South 10.4 mph - N/A   Clear
11:55 PM 55.4 °F - 44.6 °F 67% 29.87 in 10.0 mi South 10.4 mph - N/A   Clear